Theta_e
317 319 320 325 327 331 330 329 334 332 333 326 320 324 320 321 320 319 321 320 321 319 318 319 319 319 320 319 319 318 318 318 319 325 327 327 319 312 312 312 313 312 313 316 317 315 315 317 317 318 320 322 323 326 328 327 328 330 331 332 333 332 332 332 332 333 333 334 334 334 334 333 332 330 329 327 325 324 325 327 328 327 326 326 324 322 320 318 319 320 320 318 316 314 315 314 312
317 318 319 326 328 331 330 328 336 335 333 324 319 322 318 319 320 318 320 319 320 319 318 319 319 320 319 319 319 318 318 317 319 326 324 319 315 312 313 312 313 313 314 318 321 318 314 315 317 318 319 321 323 323 324 322 322 324 327 330 332 332 332 332 333 333 334 334 333 334 334 334 333 332 331 329 327 325 324 325 326 326 326 325 325 324 322 321 318 318 318 317 315 312 312 313 312
317 318 320 327 329 329 330 331 339 336 329 322 317 320 318 319 319 318 319 319 319 318 319 318 319 319 318 319 318 317 317 316 317 322 318 313 313 313 312 312 313 313 315 320 323 321 317 316 315 317 318 320 322 324 324 324 322 322 324 326 328 330 331 331 332 334 334 334 333 333 333 334 333 332 332 331 329 328 326 325 325 326 326 325 324 323 323 325 322 318 316 315 314 312 310 311 311
316 318 322 327 331 330 333 337 339 335 324 320 319 318 318 319 319 319 317 318 318 318 318 317 319 318 318 319 318 317 317 316 314 316 314 312 312 312 312 312 312 312 315 319 325 328 324 318 315 315 317 319 322 324 324 324 324 324 325 326 325 326 328 329 330 331 333 334 334 334 333 333 333 333 333 333 331 329 328 328 328 327 326 326 325 327 328 329 327 325 321 316 312 309 309 310 310
316 320 323 325 331 329 329 332 332 331 320 321 321 316 319 319 319 318 317 319 318 318 317 317 317 317 318 318 318 316 316 317 313 313 313 313 312 312 312 312 312 312 314 319 327 332 327 317 314 313 315 317 321 323 323 323 323 324 325 325 325 325 326 328 328 329 330 331 332 332 332 333 333 333 333 333 332 330 330 329 329 327 326 326 326 330 333 334 333 334 332 327 320 314 309 307 309
317 322 324 323 328 324 329 330 324 324 318 321 321 315 319 317 318 317 316 319 317 317 316 316 316 316 317 317 317 315 315 315 313 313 314 315 314 314 314 313 313 312 313 318 322 324 319 313 312 312 313 314 316 318 319 321 321 323 324 325 326 325 325 327 327 328 328 329 330 330 331 331 332 332 332 332 332 331 330 330 329 328 326 326 326 327 331 334 335 336 336 335 334 330 321 311 306
318 323 323 324 326 323 333 331 322 325 318 319 320 317 319 316 317 317 317 318 318 317 315 316 316 316 316 317 317 314 313 313 314 315 316 316 315 314 315 314 314 313 313 314 315 314 313 312 312 311 312 312 313 314 316 318 319 321 324 326 326 326 326 327 327 327 327 328 329 330 329 329 331 331 332 332 332 330 329 330 330 329 327 327 327 327 329 331 333 334 335 336 337 337 335 326 311
320 321 320 327 331 327 333 328 322 327 319 317 319 318 317 316 317 318 318 317 317 316 315 316 315 316 315 316 316 313 312 313 314 315 317 316 314 314 314 314 314 314 314 314 314 314 314 313 312 312 312 312 312 313 314 315 317 319 322 325 326 326 326 326 326 326 326 326 327 328 328 328 329 330 330 331 331 330 329 329 330 330 328 327 328 328 329 330 332 333 334 335 336 336 337 336 325
320 322 321 328 332 330 331 325 322 322 318 318 317 317 316 317 317 317 317 316 316 315 314 316 315 315 315 315 313 311 311 312 313 314 315 315 313 313 313 314 313 313 314 314 315 315 315 315 314 313 312 313 312 312 313 313 315 316 318 323 326 325 325 325 325 325 325 325 325 326 326 327 327 328 329 330 330 329 328 328 329 331 329 328 328 329 330 330 330 331 332 333 334 336 335 336 334
321 321 322 329 329 327 327 322 322 319 316 317 315 316 316 317 317 315 315 314 315 314 314 316 315 315 314 312 310 310 310 311 312 312 312 312 312 312 312 312 312 312 312 313 313 313 314 314 315 314 314 313 313 313 313 313 313 314 315 318 321 323 323 323 323 323 324 325 325 325 325 324 325 327 328 330 330 329 329 328 328 330 330 329 328 328 329 330 330 330 330 332 332 334 335 335 336
321 320 323 330 330 325 322 320 321 318 316 317 315 316 316 317 316 315 315 314 314 314 314 315 315 315 312 310 309 309 310 310 311 311 311 311 310 310 309 309 309 309 309 310 310 311 311 312 313 313 314 314 314 314 314 314 313 314 314 314 316 318 319 320 320 320 321 322 323 325 325 324 323 325 326 328 329 330 329 328 329 330 330 329 328 328 328 329 329 330 329 330 331 331 333 333 334
319 324 328 328 328 324 322 322 320 318 318 318 317 316 315 315 316 315 315 314 314 314 314 314 314 314 312 310 308 308 309 310 310 309 309 310 309 308 307 307 307 307 306 307 307 308 308 309 310 311 312 312 313 312 312 312 313 314 314 314 314 314 316 316 317 317 318 319 319 321 322 323 323 323 324 324 326 329 329 329 330 329 330 329 329 328 327 327 328 329 329 329 330 330 330 331 332
317 324 329 327 330 325 323 323 321 323 319 317 317 316 316 315 315 314 314 313 313 314 313 314 314 313 311 309 307 307 308 308 308 308 308 309 308 307 306 306 306 306 305 305 306 306 306 306 307 307 308 309 310 310 311 311 311 312 312 313 314 314 314 314 315 315 316 317 317 316 316 318 318 319 321 321 324 327 328 329 330 328 329 329 329 328 327 327 326 327 328 329 329 329 329 330 331
318 321 324 328 331 324 322 323 322 326 319 317 318 315 316 315 315 314 314 314 314 314 312 313 313 312 311 309 306 305 306 307 307 307 307 308 307 306 306 305 305 305 305 304 305 305 304 304 304 305 305 306 307 308 309 310 310 311 311 312 312 314 314 314 314 314 314 314 315 315 314 314 314 315 316 318 321 325 326 327 329 329 329 329 330 329 328 327 326 326 326 327 328 328 329 328 330
318 319 324 328 330 325 323 323 323 326 318 317 318 315 316 314 315 314 314 315 313 313 312 312 312 312 311 308 305 304 305 306 306 307 307 307 306 306 305 304 304 304 304 304 304 304 304 304 304 304 304 304 304 305 306 307 308 309 310 311 312 313 314 315 315 315 315 315 314 314 314 314 314 314 314 315 316 320 322 324 327 328 328 328 329 330 328 327 325 325 324 325 326 327 328 328 328
317 321 328 328 329 325 321 322 323 323 317 317 317 315 315 314 315 314 314 314 311 311 311 311 310 310 308 306 304 304 305 305 306 306 307 306 305 305 304 304 304 304 304 303 304 303 303 304 304 304 304 304 303 304 304 304 305 305 307 308 310 312 314 317 318 317 317 318 318 316 315 314 314 314 314 314 313 314 316 319 322 325 327 326 327 330 329 327 326 325 324 324 325 326 327 327 326
317 326 332 329 329 323 318 321 322 320 317 316 315 315 315 314 315 313 314 313 310 309 309 308 308 307 305 304 304 304 305 306 306 306 306 305 304 304 303 303 303 304 303 303 303 303 303 303 303 304 304 304 304 304 304 304 304 304 304 304 306 307 310 314 318 320 320 320 321 321 321 318 316 314 315 314 312 312 311 313 315 321 326 326 326 329 330 329 327 324 324 324 324 325 326 326 326
320 330 330 328 329 320 317 319 317 318 316 315 314 314 315 314 314 313 313 311 309 308 307 306 305 305 304 304 304 304 305 306 306 305 304 303 302 302 302 302 302 302 302 302 302 302 303 303 303 303 303 303 303 304 304 304 304 304 304 304 304 304 304 306 311 316 320 322 322 323 323 323 321 318 317 317 315 312 310 311 312 317 325 327 326 327 329 329 328 326 324 324 324 325 325 325 325
321 327 327 330 328 317 316 315 314 316 314 314 314 314 314 314 313 314 314 312 309 308 306 305 304 304 303 304 304 305 305 305 304 303 302 301 300 300 300 300 300 300 301 300 300 300 301 301 302 301 302 302 302 303 303 303 303 304 304 304 304 304 304 303 304 306 311 316 320 322 323 323 323 321 320 320 320 317 313 311 311 317 324 327 327 326 327 328 329 327 325 324 324 324 324 325 325
320 321 324 331 325 316 316 314 314 315 314 314 314 314 313 313 314 313 313 311 309 308 307 305 303 303 303 303 304 304 304 302 302 301 301 300 299 298 298 298 298 299 298 298 299 299 299 299 299 299 300 300 301 301 301 302 302 302 302 303 303 303 303 303 303 302 303 305 311 317 321 322 322 322 323 322 323 322 320 316 314 317 322 326 327 327 326 326 327 327 326 325 325 324 323 324 324
319 320 324 327 319 316 317 314 314 314 314 314 313 314 313 313 314 313 313 312 309 307 307 305 303 302 302 302 302 302 302 300 300 300 299 299 299 298 298 297 297 297 297 298 298 299 299 298 298 298 298 298 299 299 299 299 299 299 300 300 300 301 301 301 302 302 302 301 302 306 312 317 320 321 321 322 323 324 324 321 319 319 320 322 324 326 325 324 324 326 327 325 325 324 323 323 323
317 318 319 318 315 317 317 314 314 314 314 314 313 313 313 313 313 312 313 312 308 305 305 305 303 303 302 302 302 301 301 300 299 299 298 298 298 298 297 297 297 297 297 297 297 297 297 297 296 296 297 297 296 296 296 297 297 297 297 297 298 298 298 299 300 300 302 302 301 300 303 308 314 319 320 321 321 323 326 326 323 321 321 321 323 325 325 324 323 325 327 325 324 324 323 323 323
316 317 315 315 315 316 315 314 314 313 313 313 313 313 313 313 312 311 310 308 306 305 305 305 304 303 303 303 302 301 300 300 299 298 298 297 297 297 297 297 297 296 296 296 296 296 296 295 295 296 295 295 295 295 295 295 295 296 296 296 296 296 296 296 297 298 299 300 300 299 300 302 306 312 317 320 320 321 325 327 328 326 325 325 325 325 324 324 325 326 327 326 324 324 324 323 323
317 319 316 315 316 315 315 315 313 313 313 313 313 312 313 313 311 309 307 305 304 304 305 305 304 303 303 303 302 301 300 299 298 298 297 297 296 297 296 296 296 296 295 295 295 295 295 294 294 295 295 294 294 294 295 295 295 295 295 295 295 295 295 295 296 296 296 298 299 298 298 300 301 303 308 315 319 320 321 324 326 328 328 328 327 327 326 325 326 327 327 326 325 324 324 324 323
318 319 315 315 316 315 315 314 313 313 313 312 312 312 312 313 311 307 305 304 304 304 304 304 304 303 303 302 301 300 299 298 298 298 297 297 296 296 296 296 295 295 295 295 295 295 294 294 294 294 294 294 294 294 295 295 295 295 295 295 295 295 295 295 295 295 296 296 297 298 297 298 299 300 304 310 317 320 321 322 323 324 326 329 330 329 328 327 327 328 328 327 325 324 324 324 323
317 316 314 314 315 315 315 313 313 313 312 312 312 312 312 311 310 307 304 304 304 304 304 304 303 303 302 301 301 300 299 298 298 298 297 296 296 296 296 295 295 295 294 294 294 294 294 293 294 294 294 294 294 294 295 295 295 295 295 295 295 295 295 295 295 295 295 295 295 296 297 297 298 299 301 306 312 318 320 321 322 322 323 326 329 330 328 328 328 328 328 328 325 324 324 324 323
316 314 314 313 313 314 314 313 313 313 312 312 313 313 312 312 311 307 305 304 305 305 303 303 303 302 301 300 300 299 299 298 297 297 297 296 296 295 295 294 294 294 294 294 294 294 293 293 294 294 294 294 294 294 294 294 295 295 295 295 295 295 295 295 295 295 295 295 294 294 295 296 297 297 298 300 305 313 318 321 321 321 322 323 325 328 329 329 328 329 328 327 326 325 324 323 323
315 313 313 313 313 313 313 313 313 312 313 313 313 313 312 312 311 307 305 305 306 305 303 302 302 301 300 300 299 298 298 297 296 296 296 295 295 294 294 294 294 294 293 293 294 293 293 293 293 294 294 294 294 294 294 294 294 294 294 294 295 295 295 295 295 295 295 294 294 294 294 294 295 296 297 297 299 303 310 315 320 321 321 322 322 324 327 329 328 328 328 328 327 326 325 324 323
313 313 315 314 313 313 313 313 313 313 314 313 312 314 315 313 310 307 305 305 306 305 302 302 301 301 300 300 299 297 297 297 296 295 295 294 294 293 293 293 293 293 293 293 293 293 293 293 293 293 294 294 294 294 294 294 294 294 294 294 294 294 294 295 295 295 295 294 294 294 294 294 294 294 295 296 297 298 300 305 312 319 321 321 321 322 324 326 328 328 328 328 327 327 325 324 324
313 313 314 315 314 315 314 312 313 313 313 314 312 315 318 314 308 306 306 306 305 303 302 301 301 300 300 299 299 297 296 296 295 294 294 294 293 293 293 293 293 293 293 293 293 293 293 293 294 294 294 294 294 294 293 293 293 293 293 293 293 293 294 294 294 294 295 295 295 295 295 294 294 293 294 295 296 296 297 298 302 310 318 321 320 321 322 324 327 328 328 329 327 326 325 323 324
315 313 316 320 317 319 316 311 313 312 313 314 311 314 318 313 307 306 306 306 305 303 301 301 301 300 299 299 298 297 296 295 295 294 294 293 293 293 293 293 293 293 293 293 293 293 293 293 294 294 294 294 293 293 293 293 293 293 293 293 293 293 293 293 293 294 294 295 295 295 295 294 294 293 293 294 295 296 296 297 298 301 310 319 320 320 322 323 325 326 327 328 327 326 325 324 324
316 315 321 326 319 319 317 311 312 313 314 314 311 316 318 311 308 307 306 306 305 302 301 301 300 299 298 298 298 296 295 295 295 294 294 293 293 293 293 293 293 293 292 293 293 293 293 293 293 293 293 293 293 293 293 293 293 293 293 293 293 293 293 293 293 293 294 294 295 295 295 295 294 294 294 294 294 295 295 296 297 298 303 314 319 319 320 322 324 325 326 327 327 326 325 324 324
322 318 321 323 318 316 316 313 312 312 314 313 311 315 317 311 308 307 306 305 304 302 301 300 299 298 298 297 297 296 295 295 295 294 294 294 293 293 293 293 293 292 292 292 292 292 292 292 293 293 293 293 293 293 293 293 293 293 292 292 292 292 293 293 293 293 293 293 294 295 295 295 295 294 294 294 294 295 295 295 296 297 299 307 316 318 319 322 323 324 325 326 327 326 325 324 324
327 323 318 318 317 314 314 314 312 311 313 313 312 313 315 312 308 306 306 305 303 302 301 300 298 298 297 297 296 296 295 295 295 294 294 294 293 293 293 292 292 292 292 292 292 292 292 292 292 292 292 292 292 292 292 292 292 292 292 292 292 292 292 292 293 293 293 293 293 294 294 295 295 295 295 294 295 295 296 296 295 296 297 301 311 316 319 322 322 322 323 325 327 326 325 324 324
322 321 319 318 317 313 312 313 312 312 313 313 313 312 313 310 307 306 305 304 303 301 300 300 299 298 297 296 296 296 295 295 295 295 294 294 293 292 292 292 292 292 292 292 292 292 292 292 292 292 292 292 292 292 292 292 292 292 292 292 292 292 292 292 292 292 293 293 293 293 294 294 295 296 296 295 295 297 297 297 295 295 296 299 305 312 317 320 322 322 323 324 326 326 325 324 324
318 317 316 315 315 312 312 313 312 311 312 313 312 313 312 309 307 306 304 303 302 301 301 300 298 297 297 296 296 296 295 295 295 295 294 294 293 292 292 292 292 292 291 292 292 292 292 292 292 292 292 292 292 292 292 291 291 291 291 291 291 291 291 292 292 292 292 293 293 293 293 294 295 295 296 295 296 297 297 297 296 295 295 297 301 306 312 318 321 322 322 323 325 326 325 324 324
313 314 315 314 314 313 312 314 312 308 310 313 313 312 312 309 308 305 303 302 301 300 300 299 298 297 296 296 296 296 295 295 295 294 294 294 293 292 292 292 291 291 291 291 291 291 291 291 292 292 292 291 291 291 291 291 291 290 290 290 290 291 291 291 292 292 292 292 293 293 293 293 294 295 295 296 297 297 297 297 296 296 295 296 300 302 306 313 320 323 323 323 325 325 324 325 325
312 313 314 315 315 314 313 313 310 307 310 314 313 311 311 310 309 305 301 301 301 300 300 298 297 297 296 296 296 296 295 295 294 294 294 293 293 292 292 291 291 291 291 291 291 291 291 291 291 291 291 291 291 291 291 290 290 289 289 290 290 290 291 291 291 291 292 292 293 293 293 293 294 295 295 295 297 297 297 297 297 296 295 295 297 301 303 306 313 320 323 323 324 325 324 324 325
314 314 314 315 316 315 314 313 311 308 309 313 313 310 309 310 309 304 301 301 301 300 300 298 297 297 296 296 296 295 295 295 294 294 294 293 293 292 292 291 291 291 291 291 291 291 291 291 291 291 290 290 290 290 290 290 289 288 289 289 289 289 289 289 289 289 290 291 292 293 293 293 293 294 295 295 296 296 296 297 297 297 296 295 295 299 302 303 306 313 320 323 323 324 323 323 325
315 315 314 315 315 315 315 314 311 309 309 311 311 308 308 308 307 303 301 301 300 300 300 298 297 297 296 296 296 295 295 294 294 294 293 293 293 292 292 291 291 291 291 291 291 291 291 291 290 290 290 290 289 289 289 289 288 288 288 288 288 287 287 287 287 287 288 289 291 292 292 293 293 294 294 295 295 295 296 297 297 297 297 296 294 297 301 302 302 306 315 322 322 323 322 321 324
318 317 314 314 315 314 315 314 312 310 311 312 309 308 310 307 305 303 301 300 299 298 298 297 297 297 296 295 295 295 295 294 294 294 293 293 292 292 292 291 291 290 290 290 290 290 290 290 290 289 289 289 289 289 288 288 287 287 287 287 287 287 286 286 285 286 286 287 289 290 291 292 293 294 294 294 295 295 296 296 297 297 297 297 294 295 299 302 302 302 309 319 321 322 321 320 321
318 320 318 317 315 313 314 314 312 311 312 313 309 310 312 308 305 303 300 299 299 297 296 296 297 296 295 296 295 295 294 294 294 293 293 293 292 292 292 291 290 290 290 290 290 290 290 289 289 289 289 289 289 289 288 287 287 286 285 285 285 285 285 285 284 285 285 285 286 287 289 291 292 293 293 294 294 295 295 295 296 297 297 297 295 294 297 301 302 301 306 316 320 321 321 320 319
316 318 317 316 312 310 312 312 311 312 313 311 308 309 310 306 304 302 299 300 300 298 296 296 296 296 295 295 295 295 294 294 294 293 293 293 292 292 292 291 290 290 290 290 290 290 289 289 289 288 289 289 288 288 287 286 285 285 284 283 283 283 283 284 284 284 284 284 284 286 288 289 290 292 292 293 294 294 295 295 296 296 297 298 296 294 296 300 302 301 303 311 319 321 320 319 319
318 314 312 311 309 310 312 311 310 311 310 309 308 309 308 307 306 302 299 299 299 297 297 296 295 295 295 295 295 294 294 294 293 293 293 292 292 292 291 291 290 290 290 290 290 289 289 288 288 288 288 288 288 287 286 285 284 284 283 283 283 282 283 283 283 283 283 283 284 285 286 288 289 291 292 293 293 294 294 295 295 296 297 297 297 294 295 298 301 301 302 305 313 320 320 319 320
317 313 309 309 310 311 311 310 310 308 307 308 309 309 308 311 309 302 298 299 298 297 297 295 294 295 295 295 295 294 294 293 293 293 293 292 292 292 291 290 290 290 290 290 289 289 288 288 288 288 288 288 287 286 285 284 283 283 283 282 282 282 282 282 282 282 283 282 283 284 285 286 288 290 291 291 292 293 293 294 295 296 297 297 297 295 294 297 299 300 302 303 307 315 319 319 319
311 310 310 311 311 311 309 309 308 307 308 308 309 309 308 311 309 300 298 299 298 297 296 295 294 295 295 294 295 294 293 293 293 293 292 292 292 291 291 290 290 289 290 289 289 289 288 288 288 288 288 287 286 286 285 284 283 282 282 282 281 281 281 281 281 281 282 282 282 283 284 285 287 288 290 290 291 292 293 294 295 297 296 295 297 295 293 295 299 299 301 302 304 310 317 318 318
307 308 310 312 313 311 309 310 308 308 312 311 309 309 308 310 308 300 299 300 299 297 296 295 294 295 295 294 294 294 293 293 293 292 292 292 292 291 291 290 289 289 289 289 289 288 288 287 287 287 287 287 286 285 284 283 283 282 282 281 281 281 281 280 281 280 281 281 282 282 282 284 285 287 288 289 290 292 293 294 295 295 295 295 296 296 293 294 297 299 300 302 302 305 311 317 318
307 311 311 311 315 314 312 312 309 310 316 313 306 307 307 308 308 303 300 300 299 297 295 295 294 294 294 294 294 294 293 293 292 293 292 292 292 291 291 290 289 289 289 289 289 288 288 287 287 287 287 287 286 285 285 284 283 282 281 281 280 280 280 280 280 280 280 281 281 281 281 282 284 285 287 289 289 290 291 293 295 294 295 296 296 296 294 293 294 297 300 301 302 303 306 311 317
311 312 311 312 316 317 315 315 311 310 315 310 303 305 306 305 308 307 303 299 297 296 295 294 294 294 294 294 294 293 293 293 292 292 292 292 292 291 290 290 289 289 289 289 288 288 287 287 286 286 286 286 286 286 285 284 283 282 281 281 280 280 280 279 280 280 280 281 281 281 280 281 282 283 285 287 289 290 290 292 295 296 296 296 296 296 295 293 293 295 298 301 302 302 303 306 313
310 310 313 315 314 313 314 314 313 313 315 309 303 304 305 306 307 306 301 296 295 295 294 295 294 294 294 294 294 293 293 293 292 292 292 292 291 291 290 289 289 289 289 288 288 288 287 287 286 286 286 286 286 286 285 284 283 282 281 281 280 279 279 279 279 279 279 280 280 280 280 280 280 282 283 285 287 289 290 290 293 296 296 295 295 296 294 293 293 294 297 300 301 302 302 303 308
309 311 313 314 313 314 315 314 314 315 314 309 303 304 308 309 304 300 296 294 294 295 294 295 294 294 294 293 293 293 292 293 292 292 292 291 291 290 289 289 289 289 288 288 288 287 287 286 285 285 286 286 286 285 285 285 283 282 281 280 280 279 279 279 279 279 278 279 279 279 279 279 279 280 282 284 286 288 289 290 292 295 296 295 295 296 295 293 293 293 295 299 301 301 302 302 305
308 307 308 310 312 313 313 311 309 308 308 306 304 306 308 305 299 295 294 294 293 294 294 294 294 294 294 293 293 293 292 292 292 292 292 291 291 290 289 289 289 288 288 288 287 287 286 286 285 285 286 285 285 285 284 283 283 282 281 281 280 280 279 279 278 278 277 277 278 278 278 278 279 280 281 283 285 287 288 290 292 294 296 296 295 295 295 293 292 293 294 298 301 302 301 302 303
308 305 308 309 309 308 308 308 306 304 305 306 305 306 306 303 299 295 294 295 294 293 293 293 294 294 293 293 293 293 292 292 292 292 291 291 290 290 289 289 288 288 288 287 287 287 286 285 285 285 285 285 285 284 283 282 281 281 282 281 280 280 279 279 278 277 277 277 277 277 277 277 278 279 280 282 284 286 288 289 291 293 295 297 296 294 295 294 292 293 294 296 300 302 301 302 303
307 307 308 306 305 304 306 307 306 304 306 306 305 305 304 305 304 296 294 295 294 293 294 293 293 293 293 293 292 293 293 292 292 291 291 290 290 289 289 288 288 288 287 287 287 286 286 285 285 284 284 284 284 283 282 281 280 281 281 281 280 280 279 279 278 278 277 276 276 276 276 276 277 278 280 281 283 285 287 289 291 293 295 296 296 295 295 295 293 293 293 295 299 301 301 302 303
304 305 304 304 306 305 305 306 306 307 308 308 307 305 303 304 303 297 294 295 294 293 294 294 293 293 293 293 293 293 292 292 292 291 291 290 290 289 289 288 288 287 287 287 286 286 286 285 284 284 284 283 282 281 280 280 280 280 280 280 280 279 279 279 279 278 278 277 275 275 275 276 277 278 279 280 282 284 286 288 289 292 294 295 296 296 295 295 294 293 293 294 297 300 301 302 302
299 300 300 302 305 305 305 305 305 308 309 309 309 307 306 305 303 299 296 295 294 293 295 295 293 292 293 293 293 293 292 292 291 291 290 290 289 289 288 288 288 287 287 286 286 286 285 285 284 284 284 283 281 280 279 279 279 280 280 281 280 280 279 278 278 278 277 277 276 275 274 275 276 278 278 279 280 283 285 286 287 289 291 294 295 296 296 296 294 293 293 294 295 298 301 301 302
300 300 300 300 300 303 305 303 303 305 306 307 307 307 308 306 302 301 298 296 294 294 295 296 293 292 293 293 292 292 292 291 291 290 290 289 289 289 288 288 287 287 287 286 285 285 285 285 284 284 283 282 281 280 279 279 280 280 280 281 281 280 279 278 278 277 277 277 276 275 274 275 275 277 278 278 279 281 283 285 286 287 289 292 294 295 296 296 294 293 294 294 294 297 300 301 302
302 302 302 301 300 303 305 304 303 303 303 305 306 307 309 304 299 298 298 296 295 294 295 294 293 293 293 292 292 292 292 291 291 290 290 289 289 288 288 288 287 287 286 286 285 285 284 284 285 284 283 282 280 279 279 279 279 280 281 281 281 280 279 278 277 277 276 276 276 275 274 274 274 276 277 278 279 281 282 284 285 287 288 290 293 294 295 295 295 294 294 294 293 295 299 301 302
Wind_Speed
8 7 4 2 3 4 6 3 2 2 3 3 0 2 3 3 4 4 6 5 4 4 8 6 6 7 4 1 3 11 13 7 4 6 5 4 13 20 20 21 21 20 17 17 18 16 14 14 14 15 15 14 13 12 11 12 12 11 10 9 9 10 10 11 12 12 12 12 12 12 13 14 15 15 15 15 15 15 14 13 13 12 12 10 10 11 12 12 13 13 14 15 15 15 15 16 16
8 6 4 3 6 5 3 2 2 3 4 4 3 2 1 4 5 5 5 4 2 4 9 8 6 7 8 4 5 13 17 18 16 15 12 11 14 17 20 21 20 18 16 16 18 17 15 14 13 14 14 13 13 13 13 14 15 14 13 11 10 10 11 12 12 13 13 13 14 14 14 15 15 16 15 15 15 15 15 15 15 14 15 12 10 12 12 12 13 13 14 15 15 16 16 17 18
8 7 5 3 6 5 2 2 3 3 4 4 3 3 1 5 5 2 5 7 5 7 10 9 7 7 10 8 6 8 12 24 24 14 14 20 18 20 21 19 17 15 13 13 16 18 17 17 15 14 13 13 12 12 12 14 15 15 14 13 13 12 12 12 14 14 14 14 15 15 15 16 16 16 15 15 15 14 14 15 15 15 16 14 12 12 12 11 12 13 14 15 15 16 17 18 19
9 7 6 4 5 4 2 3 2 4 4 3 2 5 3 4 4 3 6 11 10 10 11 9 6 6 9 9 7 8 11 21 25 17 16 21 20 20 18 16 14 12 11 11 14 17 18 18 18 16 14 14 13 12 12 14 15 15 15 15 15 15 14 14 14 15 16 17 16 16 17 17 17 17 16 16 15 15 15 14 14 15 16 15 14 12 11 12 12 12 12 14 15 15 16 18 19
8 4 6 6 4 2 2 2 1 5 3 3 3 2 2 4 5 4 5 11 12 12 12 10 5 5 12 17 14 9 10 13 22 24 18 19 18 17 16 15 13 11 10 9 11 13 15 17 16 15 14 13 12 13 13 14 15 15 16 17 17 17 16 16 16 16 17 18 18 19 19 18 18 18 18 18 17 17 17 16 15 17 17 17 16 13 13 13 14 14 13 13 14 14 15 17 19
7 3 6 7 3 1 2 3 3 5 1 3 5 2 1 4 4 5 5 9 13 13 13 12 5 5 14 23 26 21 18 13 19 24 20 20 18 17 18 16 14 12 10 7 8 9 11 12 11 10 11 11 11 12 13 14 15 15 16 17 17 18 18 18 17 17 18 18 19 20 20 20 20 20 20 19 19 19 18 18 18 18 18 19 18 15 15 15 15 15 16 16 15 15 14 15 18
7 6 7 6 2 2 3 3 3 3 2 3 6 4 3 5 4 6 5 5 8 11 13 12 8 7 9 16 22 26 25 19 20 22 21 19 16 15 16 14 14 14 13 9 8 9 11 11 9 8 7 8 9 11 12 13 14 15 15 16 17 17 18 19 19 19 19 19 20 20 21 22 22 22 21 21 21 21 21 20 20 20 19 19 19 17 16 16 17 17 16 17 17 16 15 16 17
8 7 5 4 2 3 3 3 2 3 2 3 6 5 6 6 5 4 2 3 5 7 10 10 10 8 11 20 17 20 24 23 21 18 18 16 14 13 12 12 12 14 13 12 11 11 13 13 12 10 8 7 7 9 11 12 13 14 15 15 15 17 18 19 19 19 20 21 21 21 22 23 24 24 23 23 23 23 23 22 22 22 22 21 20 18 18 18 18 18 17 17 18 18 18 17 17
8 6 3 3 2 3 2 2 2 2 3 4 5 7 7 6 5 3 3 6 7 9 11 8 10 7 15 26 19 21 25 23 20 17 17 15 15 14 13 13 13 14 13 13 12 11 12 13 13 12 11 9 8 7 8 10 12 14 14 14 14 16 17 19 20 20 21 21 22 22 23 23 25 25 26 25 24 25 24 24 24 24 23 22 22 20 19 19 19 19 19 19 19 19 19 19 19
7 4 1 3 2 4 2 1 2 3 4 5 6 7 5 5 6 7 7 7 7 9 10 9 12 16 19 20 17 22 24 20 19 19 19 16 16 16 16 16 15 15 15 15 15 13 13 13 13 12 12 11 9 8 8 8 10 12 14 14 14 15 17 18 20 21 21 22 23 23 24 24 25 26 26 26 26 26 26 25 25 25 25 24 23 23 22 20 20 20 20 20 20 20 20 20 20
5 3 1 3 3 3 1 2 3 4 3 4 5 6 5 5 6 8 9 8 10 12 9 7 9 21 23 16 17 19 18 19 19 19 17 16 16 16 17 18 17 18 18 17 16 16 15 15 14 13 12 12 11 10 9 9 9 10 11 13 14 16 17 18 19 20 21 22 24 24 24 25 26 27 27 27 28 28 28 27 26 26 26 25 25 25 24 23 22 21 21 22 22 22 21 21 21
4 2 3 3 2 1 2 4 5 4 3 3 2 4 9 11 7 5 6 7 11 14 11 7 3 11 15 11 15 17 18 21 19 16 14 13 15 16 17 17 18 19 20 19 18 19 18 18 17 17 16 15 15 14 13 12 12 11 11 12 13 15 17 19 20 21 22 22 23 24 25 26 26 27 28 29 30 30 30 29 27 27 27 26 27 27 26 25 24 23 23 23 23 23 23 23 23
4 1 5 2 3 2 1 4 5 4 3 0 2 4 9 11 8 6 9 9 10 12 11 9 4 8 10 10 13 19 21 20 16 14 12 12 13 14 16 17 19 20 21 21 21 22 22 22 21 21 20 19 19 18 17 16 15 14 14 14 14 15 16 18 20 22 24 24 24 24 25 26 27 28 29 30 31 31 31 31 29 28 28 28 27 28 28 27 26 25 25 24 24 24 24 24 25
4 2 4 1 1 1 2 3 3 4 2 2 2 5 7 7 8 10 12 8 8 11 9 9 9 11 9 8 13 21 20 15 12 11 11 11 11 13 16 18 19 21 22 23 23 24 24 25 25 24 24 24 23 21 20 19 18 17 16 16 16 16 17 18 19 20 22 24 26 27 27 28 28 29 29 30 31 32 31 33 32 30 30 30 29 29 29 29 29 28 27 26 26 25 25 25 26
5 3 3 1 3 2 0 3 3 5 3 1 3 8 10 7 8 11 11 8 9 10 9 10 7 6 7 8 11 18 16 12 10 9 9 10 12 15 17 19 21 22 23 24 25 25 25 26 26 27 27 27 27 26 24 22 21 20 19 18 17 17 17 18 19 19 20 21 23 25 27 28 30 30 30 30 32 33 33 33 34 33 33 32 32 32 30 30 31 31 30 28 27 26 25 26 27
5 2 4 2 3 2 0 2 3 5 2 0 6 11 10 6 7 9 7 11 17 17 15 17 15 13 17 19 15 14 13 10 9 8 9 12 15 17 19 21 22 23 25 26 26 27 27 27 28 28 28 28 29 28 27 26 25 24 23 22 20 20 19 19 19 19 20 21 21 21 22 24 27 29 31 31 31 33 34 34 34 35 35 34 33 34 33 32 32 32 32 30 29 27 27 27 28
5 2 4 2 1 0 1 2 3 4 2 1 5 8 6 3 5 7 8 16 24 28 27 26 24 24 25 23 16 12 10 7 8 8 11 16 19 21 22 24 24 24 26 27 28 28 28 28 29 30 29 29 30 30 30 29 28 28 27 26 25 25 23 22 21 20 20 21 22 23 22 22 23 25 28 30 31 32 34 35 35 35 35 35 33 34 35 34 33 33 33 31 30 29 28 29 29
5 2 3 2 1 1 1 1 2 4 3 1 3 5 7 3 1 6 13 21 27 30 30 29 28 26 24 19 14 11 8 8 10 13 17 22 24 26 27 28 28 27 28 29 29 30 30 30 30 31 30 30 30 30 31 30 30 29 29 28 27 27 27 27 26 24 23 22 23 24 25 26 25 23 23 26 28 30 32 34 35 35 35 35 34 34 35 36 35 33 33 32 31 30 30 30 31
4 2 2 2 3 1 2 5 5 6 4 2 4 7 8 3 1 6 8 12 21 22 20 26 28 24 20 17 13 11 10 13 16 19 23 26 27 29 29 30 30 29 30 31 33 33 33 33 33 33 33 33 32 31 32 32 31 31 30 30 29 29 28 28 28 28 28 26 26 26 26 28 28 27 24 24 25 27 30 32 34 34 34 35 35 35 36 37 37 35 34 33 32 31 30 31 32
2 3 1 5 4 2 4 10 11 9 7 4 5 6 8 4 2 6 9 9 13 12 11 18 23 22 20 16 13 12 13 17 20 22 24 26 28 29 29 30 30 30 30 32 34 35 35 37 37 37 37 36 36 35 34 34 34 33 33 32 31 31 30 29 28 27 28 29 29 28 29 29 29 30 30 28 26 27 29 30 32 33 34 35 36 37 37 37 38 38 36 35 34 32 32 32 33
1 2 3 6 2 2 5 11 12 12 11 6 6 7 6 7 4 6 13 10 7 8 14 19 22 22 20 17 15 15 17 21 23 24 25 25 27 28 29 30 30 30 31 33 35 36 37 39 40 40 40 40 40 39 39 38 38 37 36 35 34 33 32 32 31 29 27 27 28 29 29 30 31 32 32 32 31 30 30 31 31 32 35 36 36 37 38 38 38 40 39 37 36 34 33 33 34
2 1 3 2 4 2 6 11 12 12 11 9 9 7 6 5 8 9 13 8 5 13 21 24 24 21 18 17 15 16 19 22 24 26 26 26 26 27 30 31 32 32 33 34 36 37 38 40 41 40 41 41 42 42 43 42 42 41 40 39 39 37 36 34 33 31 29 28 27 28 29 29 29 32 33 34 34 32 34 35 34 35 36 37 36 37 38 37 38 40 40 38 37 36 35 34 35
1 3 1 2 4 3 6 10 12 11 10 8 6 5 5 7 10 13 19 16 17 22 24 23 20 18 15 14 14 16 19 21 23 25 26 27 27 28 31 33 34 35 36 36 36 37 37 40 40 38 40 41 42 43 43 43 42 42 41 41 40 40 39 37 35 32 31 30 29 29 29 29 28 30 33 35 35 34 35 36 36 37 39 39 38 38 39 38 37 39 40 39 38 37 36 36 36
3 3 2 1 3 4 6 8 8 8 7 6 5 6 4 5 9 16 24 24 26 25 20 20 18 16 12 12 15 18 20 21 22 23 24 27 28 28 30 33 34 35 37 37 37 37 37 39 39 38 40 41 42 43 43 43 42 42 41 41 41 41 40 38 37 36 33 30 29 30 30 31 30 30 31 34 36 36 37 36 35 37 40 42 42 41 41 39 38 39 40 40 40 39 38 37 37
5 2 2 1 3 4 6 5 5 4 4 5 5 6 7 6 16 19 23 25 27 23 19 18 16 15 13 14 16 17 19 21 21 21 22 25 27 28 30 33 34 36 37 38 37 37 37 39 39 39 40 41 41 42 42 42 41 41 41 41 42 42 41 40 39 39 36 32 28 28 30 32 33 32 31 31 34 36 37 37 36 37 39 40 42 44 44 42 40 40 41 41 42 42 40 38 38
3 1 2 2 3 4 4 2 2 1 2 7 6 5 6 16 22 15 20 27 24 21 19 17 15 15 14 15 14 14 16 19 19 20 21 24 27 29 31 33 34 36 37 37 37 37 38 39 39 39 39 39 39 40 41 41 40 40 40 40 40 41 42 42 42 41 39 38 34 30 29 32 34 34 34 32 32 34 36 37 37 38 39 39 41 44 45 43 42 42 43 42 42 42 41 39 38
2 1 4 6 7 5 4 3 1 3 2 8 6 2 1 11 10 6 18 26 22 20 19 15 15 16 16 15 14 14 14 17 19 19 21 25 28 30 31 33 34 35 35 36 36 35 37 38 38 38 38 38 39 39 39 40 40 40 39 39 39 40 40 41 43 43 43 42 42 38 33 32 34 36 37 36 35 35 35 36 37 38 39 40 42 44 44 44 44 44 44 43 42 42 42 39 39
0 3 7 9 7 6 5 5 3 3 2 6 7 3 3 5 4 13 24 25 21 20 20 18 17 18 17 16 15 15 14 15 19 20 24 26 28 30 30 31 32 33 34 34 33 35 37 37 36 37 38 38 39 39 40 41 41 41 41 40 40 40 40 41 41 43 44 45 44 43 40 35 34 37 39 39 38 37 37 37 37 37 38 40 43 44 44 46 46 45 44 43 43 42 42 40 39
2 1 3 6 3 1 5 5 5 4 2 4 9 6 1 2 8 24 30 25 20 21 23 20 19 19 16 15 14 15 13 14 19 22 23 25 26 28 28 29 29 30 31 31 32 34 36 36 36 37 38 39 40 40 41 42 43 44 45 44 43 42 42 43 42 42 43 45 45 45 44 41 36 36 38 40 41 40 40 39 38 38 38 38 41 44 45 46 47 47 46 44 44 43 42 41 39
2 1 2 2 6 3 7 7 6 5 3 4 5 3 4 1 15 30 30 26 23 24 24 22 21 19 16 15 13 14 13 13 18 21 22 24 26 27 27 28 28 29 30 32 33 35 35 36 37 38 39 40 40 41 41 43 45 46 47 48 47 45 44 44 44 43 43 44 45 46 46 44 39 36 37 39 41 42 41 41 40 39 38 37 39 43 45 47 48 49 49 46 45 46 43 42 41
1 1 2 3 2 4 7 5 6 5 4 6 1 2 6 2 16 29 29 27 27 26 24 23 22 19 17 15 12 12 13 14 17 19 22 25 26 25 27 29 30 31 32 34 35 36 36 37 38 39 40 41 42 42 43 44 46 48 49 50 49 49 48 47 46 45 44 43 44 45 46 45 43 39 37 38 40 41 42 41 41 40 38 37 37 40 44 48 50 51 52 50 46 46 45 43 43
2 2 3 2 2 3 5 3 6 6 4 6 3 2 4 2 15 26 27 27 26 26 23 23 21 18 16 13 11 11 13 13 14 18 20 23 26 25 27 30 32 33 34 35 36 37 37 38 39 40 41 43 43 44 44 45 48 49 50 51 50 50 49 49 48 47 46 44 43 44 44 45 45 42 38 38 39 40 41 41 40 39 38 37 35 37 42 47 48 50 54 54 49 46 46 45 44
3 2 2 4 2 3 3 3 4 6 2 4 4 3 3 1 13 23 24 26 27 26 23 22 20 17 15 12 11 10 12 12 12 15 16 21 26 27 28 31 33 34 35 36 37 38 38 39 40 42 42 43 44 45 46 47 49 50 51 51 51 51 50 49 49 49 48 46 45 43 43 44 45 44 41 40 41 40 40 40 40 39 38 39 36 34 42 47 45 46 52 53 50 46 46 47 44
4 2 1 4 4 2 2 5 4 4 2 4 3 4 5 3 12 19 22 25 27 24 22 22 19 16 13 11 10 9 11 12 10 11 14 19 26 29 30 32 33 34 34 35 37 38 39 40 41 42 43 43 45 46 47 48 49 50 51 52 52 52 52 51 50 49 49 48 47 45 44 44 44 43 43 42 42 41 41 41 39 38 38 40 39 34 39 48 45 44 52 54 52 49 47 48 45
4 4 3 4 4 3 4 4 3 3 3 5 4 5 6 4 8 15 20 23 24 23 23 22 19 16 13 11 10 7 8 10 9 10 14 18 25 30 30 32 32 32 34 35 36 37 38 40 41 42 42 44 46 48 49 50 51 51 53 54 54 54 54 53 51 50 50 50 49 47 46 45 43 42 43 43 43 41 42 43 41 38 38 39 42 37 36 44 48 46 51 57 54 51 50 48 45
6 6 4 4 5 5 6 5 3 3 3 6 6 6 5 6 7 10 17 21 21 22 22 21 19 16 13 11 9 7 6 9 11 12 14 17 23 28 29 31 31 33 34 35 36 37 39 40 41 41 42 44 47 49 50 51 52 53 55 55 55 56 55 53 52 50 50 50 49 47 46 45 43 43 44 43 42 41 43 45 44 40 38 37 40 43 38 40 48 49 51 58 58 53 49 48 44
4 4 4 6 6 6 6 4 4 2 3 6 7 6 5 6 8 9 16 19 18 20 20 19 19 16 13 11 8 6 5 7 11 11 11 15 21 27 30 31 32 34 35 35 36 37 39 40 40 42 43 45 46 48 50 50 51 53 55 55 56 57 55 52 52 50 49 49 49 47 47 45 43 42 43 42 41 42 43 46 46 43 39 36 36 43 44 40 42 48 54 59 60 55 50 49 47
4 4 4 6 5 7 8 5 4 1 1 5 5 5 7 7 7 10 16 15 15 19 20 19 19 16 12 10 8 5 4 5 9 10 10 15 21 26 30 32 33 34 33 34 36 37 38 38 40 42 44 45 46 46 47 48 50 51 51 51 52 53 51 50 50 49 48 48 48 47 46 44 42 42 42 41 41 42 44 45 47 46 41 36 35 39 46 44 41 43 55 60 55 56 55 53 53
5 4 3 5 5 5 6 3 2 1 1 4 5 6 8 8 7 10 16 13 14 20 22 20 19 17 13 10 7 5 3 3 8 9 11 16 20 25 29 32 32 31 33 35 36 37 38 39 41 43 44 45 46 46 46 49 52 51 48 48 48 50 53 53 53 52 48 46 46 46 45 44 42 42 41 41 41 43 45 45 46 47 43 37 35 36 42 47 45 40 49 61 54 54 55 55 58
5 4 3 5 4 2 4 3 3 4 3 4 6 8 7 5 3 6 11 12 14 17 20 19 17 15 13 11 8 5 2 3 7 8 11 14 18 23 28 30 30 31 34 35 36 38 39 41 42 43 44 45 45 45 47 50 53 52 51 52 53 54 56 56 56 54 48 44 43 42 43 43 43 42 41 42 43 44 44 44 46 46 44 40 35 35 38 44 48 43 41 58 60 56 53 52 58
5 6 6 6 5 4 6 4 5 6 5 5 7 8 6 6 8 5 5 9 13 16 19 17 15 14 13 12 9 4 1 2 5 7 10 12 16 22 25 28 31 33 34 36 37 39 40 41 42 42 44 45 45 46 48 51 52 54 56 58 59 58 58 55 51 49 46 43 43 41 40 40 42 43 42 42 43 43 43 44 45 44 44 41 37 34 34 40 46 44 41 51 65 62 57 53 55
5 5 7 6 5 4 5 4 5 5 5 4 2 4 6 5 10 8 5 6 9 12 16 16 16 16 15 14 9 4 2 1 3 6 9 11 15 20 24 29 33 35 34 35 38 40 40 41 40 42 45 47 48 48 49 50 52 55 56 57 59 58 57 55 49 47 48 50 50 47 44 41 41 42 42 42 42 43 44 43 44 43 44 42 38 35 32 35 41 41 43 44 59 59 57 57 56
4 5 5 5 5 2 4 2 2 2 4 3 3 2 7 2 6 9 7 8 9 8 10 14 18 19 16 14 10 5 1 1 3 6 8 11 15 20 25 31 34 35 34 35 38 39 40 40 40 42 46 48 49 50 50 49 50 53 54 54 55 52 50 51 50 49 50 53 52 46 44 42 40 40 42 42 42 42 42 42 43 44 45 42 39 36 31 33 36 39 44 43 51 57 55 57 60
4 4 5 4 2 3 5 3 3 4 3 4 2 4 6 6 6 9 10 9 8 8 8 11 17 19 15 13 9 4 1 1 4 7 8 11 16 21 26 31 34 35 35 36 38 40 40 40 41 43 46 48 49 50 49 47 47 49 51 52 52 49 46 47 49 51 51 49 47 43 42 41 38 37 39 40 40 40 41 43 45 44 43 41 40 38 33 30 33 36 42 46 46 59 64 60 63
5 5 5 4 5 6 5 4 6 3 3 5 5 5 5 7 4 5 9 9 9 11 11 10 15 19 16 13 9 3 2 1 4 6 8 13 18 23 28 32 35 35 35 37 39 40 41 43 44 45 46 48 49 50 49 47 45 46 47 49 50 48 46 46 48 50 49 48 48 46 43 42 39 36 35 37 39 41 41 42 44 43 40 41 41 39 35 30 32 34 38 46 44 47 66 64 63
4 4 3 3 4 6 4 5 4 1 1 7 6 7 4 6 2 4 6 7 10 11 9 8 15 20 16 12 8 4 2 1 4 6 10 15 19 25 30 34 36 36 36 39 40 42 43 45 46 47 47 48 50 51 50 48 46 46 47 48 48 48 47 47 47 48 48 47 46 44 43 42 41 38 34 33 36 39 41 40 40 42 42 42 41 38 34 30 31 33 33 40 45 38 51 62 62
0 1 2 4 4 3 1 2 0 2 4 8 6 9 7 5 3 7 5 6 9 11 9 9 14 19 17 11 8 5 3 1 4 7 11 16 21 27 32 35 36 36 37 40 42 44 44 46 47 48 49 49 50 52 51 50 47 46 47 47 47 47 46 47 47 48 48 45 43 42 44 44 43 41 38 34 33 36 39 40 40 42 43 41 39 36 35 31 29 32 32 35 43 42 39 54 62
3 3 3 4 5 3 4 3 3 1 6 6 4 6 7 6 5 6 6 4 8 13 12 11 12 16 17 12 8 6 3 2 5 9 14 20 26 30 33 36 36 35 37 41 43 45 46 47 48 50 51 50 51 53 53 52 50 48 48 48 47 45 44 45 47 49 46 42 43 44 44 45 43 41 41 38 33 33 36 40 42 43 41 39 37 36 36 33 29 30 32 34 41 45 40 41 58
4 3 4 3 4 4 3 3 0 3 6 4 1 0 4 8 7 6 8 5 8 13 15 16 15 17 17 11 8 6 3 3 5 11 18 25 28 30 33 35 34 35 38 42 44 46 46 48 49 51 52 52 52 54 56 56 53 51 50 50 48 46 44 44 45 46 44 42 44 44 44 45 44 42 43 42 37 33 34 37 41 42 38 37 37 37 35 33 30 30 30 33 38 44 44 41 49
4 3 3 2 1 3 4 3 2 4 6 4 2 1 3 5 5 6 8 6 10 17 20 20 19 18 14 11 9 7 4 3 8 15 22 25 26 29 32 33 33 35 38 42 45 46 47 49 50 51 53 53 54 55 57 57 55 53 52 52 49 46 45 44 44 44 44 44 44 45 44 43 43 43 44 44 41 37 34 34 37 39 40 38 37 36 35 33 30 31 31 32 36 40 45 45 43
4 4 5 4 3 2 4 3 4 6 6 4 2 2 4 3 3 4 6 11 16 21 21 19 17 15 12 10 9 6 2 4 12 17 21 23 25 29 32 32 33 34 39 43 45 45 47 48 50 52 53 54 55 55 57 57 57 55 54 53 50 47 46 45 45 45 44 44 43 44 44 42 43 44 42 42 43 40 36 32 33 38 41 40 36 34 35 34 31 31 32 31 34 37 41 46 44
2 2 4 2 5 4 3 3 4 2 6 5 3 3 5 3 3 1 8 11 14 17 18 18 17 14 12 11 9 3 3 9 14 17 20 22 25 28 31 31 32 35 40 43 44 45 46 48 50 51 53 54 54 54 55 54 55 56 56 54 51 49 48 48 48 47 44 44 43 43 43 43 45 45 40 39 40 40 37 32 30 34 38 39 36 34 35 34 32 32 32 31 32 33 36 43 43
1 2 3 4 4 4 1 3 1 3 4 6 3 4 4 1 2 2 7 7 8 11 13 16 17 14 12 11 7 2 5 10 13 16 19 22 25 28 30 30 31 36 41 43 43 45 46 48 49 51 53 54 55 55 55 53 53 56 57 56 53 52 51 50 49 48 47 45 44 44 44 44 45 43 40 37 37 38 37 32 29 30 34 39 38 35 35 34 31 32 33 31 31 31 33 41 42
4 3 4 2 2 2 2 1 3 2 5 6 3 6 6 1 2 4 6 8 9 8 8 12 15 14 12 9 6 1 5 8 12 15 18 21 25 29 30 29 31 36 41 42 43 45 46 48 48 50 53 53 54 55 55 53 53 56 57 56 55 54 53 53 52 51 50 48 47 46 45 44 43 40 39 37 35 37 36 32 28 28 31 37 38 35 35 34 31 32 33 31 31 30 32 40 44
3 2 2 2 1 2 2 1 2 2 6 7 2 5 7 5 5 7 11 13 12 9 8 9 10 12 12 9 5 0 4 7 11 14 18 22 26 29 29 29 33 38 40 41 43 45 46 48 48 50 52 52 52 53 52 52 52 54 56 56 56 55 54 55 55 53 51 49 48 46 45 44 41 38 37 37 37 36 36 32 29 27 28 33 36 36 36 35 33 33 33 32 31 29 31 37 44
3 1 1 1 2 3 2 2 2 3 5 7 5 6 4 6 7 12 15 15 14 11 9 8 9 13 13 10 6 2 3 7 12 15 18 22 25 28 28 30 36 40 41 41 43 45 46 48 49 50 52 53 53 53 52 53 54 54 56 57 57 57 55 56 56 55 52 50 48 46 44 43 40 36 35 37 38 36 36 33 29 26 26 28 33 35 36 36 34 34 34 33 32 29 30 34 42
3 2 2 2 2 1 1 2 3 3 5 4 5 9 6 3 5 10 14 14 14 12 9 8 11 15 14 11 8 2 4 8 12 15 19 22 25 27 28 32 38 40 41 41 43 45 46 47 49 50 52 53 54 54 54 55 56 56 57 59 60 59 57 57 57 55 52 50 47 44 42 41 40 38 36 37 38 37 35 34 31 28 25 26 29 32 34 35 34 34 34 33 32 30 29 32 39
6 6 6 7 5 3 2 5 3 3 5 4 3 12 10 3 3 6 10 11 11 12 10 8 12 17 15 11 7 2 5 7 11 15 19 23 25 27 30 35 40 41 41 43 43 45 46 48 50 51 52 53 53 54 55 56 57 57 58 60 61 60 58 58 57 56 52 50 48 45 42 40 40 38 37 37 37 36 35 34 33 31 28 25 26 28 32 34 33 34 35 34 33 31 30 31 35
Wind_Direction
11 3 342 78 61 33 42 77 89 9 67 69 340 80 5 25 77 54 33 29 68 31 24 39 35 28 22 27 77 64 57 35 55 91 98 74 24 17 15 8 4 2 6 10 0 358 3 4 0 358 356 352 350 346 336 334 331 326 321 305 294 288 287 287 290 292 292 290 285 286 289 291 295 300 297 294 294 293 289 285 282 281 277 271 268 261 254 250 248 245 244 246 245 242 239 241 244
7 7 336 20 41 26 23 67 81 25 57 44 1 70 6 16 49 64 66 63 79 12 15 32 50 41 36 38 86 72 49 39 68 99 78 31 11 14 11 1 359 360 9 17 3 357 1 2 358 355 354 352 348 345 338 336 334 330 325 313 303 296 290 285 282 281 283 286 283 282 283 284 290 296 296 294 295 296 296 292 288 287 285 281 275 269 262 254 249 247 245 246 246 245 239 237 242
0 3 347 339 38 24 334 50 84 69 75 79 13 337 15 46 38 70 103 94 69 40 29 34 63 38 34 49 77 91 59 46 57 80 43 14 8 6 360 359 357 357 6 14 5 358 1 0 356 350 346 345 340 335 330 328 328 326 322 316 310 303 297 290 282 277 278 281 280 279 280 281 284 288 289 290 293 295 296 294 292 289 286 284 277 271 271 269 259 252 248 248 248 246 241 236 239
357 1 11 4 38 27 17 60 129 109 99 123 62 329 29 69 18 12 108 96 68 55 41 35 64 37 36 42 47 77 68 52 43 40 26 12 13 6 2 8 3 360 3 11 9 356 355 357 354 349 342 338 333 327 323 320 320 318 315 309 306 302 299 295 289 283 281 279 277 278 279 279 279 282 283 284 286 290 291 287 287 287 287 283 279 278 279 283 280 274 263 255 252 248 242 237 239
351 350 22 20 32 27 65 60 77 95 112 154 117 318 32 74 19 6 116 97 71 61 48 46 51 43 57 49 49 49 33 45 35 32 34 25 27 23 25 23 15 22 13 9 13 356 347 350 353 352 344 336 329 322 317 315 314 312 309 305 302 301 297 294 293 289 286 282 279 278 278 278 279 279 279 279 279 280 281 279 280 281 282 281 278 271 265 269 274 277 275 269 263 259 252 241 239
355 7 21 19 31 23 65 59 60 88 153 149 120 203 73 60 20 20 96 99 76 64 54 51 40 77 84 69 63 49 33 44 38 37 44 40 40 39 38 31 26 41 41 21 9 356 348 349 357 357 347 334 322 315 310 308 307 305 304 303 299 296 296 293 291 290 288 285 282 280 280 280 279 277 276 275 275 275 275 275 275 274 274 275 274 264 255 256 258 261 264 266 265 266 265 253 245
15 25 19 22 37 34 83 98 141 123 29 111 129 166 99 50 26 34 67 101 86 64 51 43 52 90 96 86 67 43 43 51 50 51 50 45 42 41 39 35 32 42 50 44 27 17 13 10 9 4 353 337 321 312 305 301 299 298 298 297 294 290 292 291 289 289 287 285 283 281 281 282 280 277 276 274 274 274 275 273 271 271 270 270 270 264 255 251 251 252 254 256 256 257 260 260 254
31 25 21 47 48 30 80 98 174 154 67 111 125 118 87 53 41 34 30 79 113 75 46 38 52 82 70 78 70 37 46 50 56 62 55 49 38 36 31 28 32 37 41 43 42 33 29 25 20 15 6 352 332 317 306 300 294 292 292 292 291 287 287 288 289 287 285 284 283 282 281 282 282 280 277 275 274 274 274 272 270 270 270 270 270 265 256 251 249 249 249 250 252 251 253 256 257
35 27 26 61 53 17 50 80 48 105 87 96 91 87 83 70 57 40 27 48 103 73 47 53 50 88 80 71 63 38 46 51 56 56 47 40 30 32 27 26 28 30 29 28 30 27 26 22 22 19 13 5 349 332 312 304 298 294 291 288 285 283 283 285 286 285 285 284 283 283 282 282 281 280 277 274 272 274 274 272 270 269 269 269 268 267 260 254 250 248 246 246 248 251 252 252 254
33 31 28 68 57 17 23 111 74 103 108 114 95 88 83 72 64 53 58 56 90 63 55 91 67 82 85 65 50 37 43 45 40 37 34 27 25 30 33 38 34 30 27 22 20 16 16 13 14 14 10 8 360 350 331 313 303 299 296 292 284 280 280 281 282 283 284 283 282 281 281 282 282 281 279 275 271 271 272 271 268 266 267 268 267 266 264 258 252 248 246 245 245 247 249 250 251
21 8 37 63 50 20 75 136 124 131 129 120 79 76 81 81 79 50 66 79 78 66 66 100 87 92 90 69 51 42 44 38 28 32 31 22 25 35 41 47 44 41 37 32 28 20 18 12 10 7 3 360 356 353 343 332 316 306 299 296 291 287 283 281 281 281 281 280 280 278 278 279 280 281 280 276 273 272 271 268 267 265 265 266 266 265 265 261 256 250 247 245 244 245 246 249 249
11 347 55 79 111 218 195 145 142 132 71 61 39 75 85 84 91 45 70 93 74 67 56 52 102 111 98 77 52 44 51 46 43 43 27 18 30 43 47 48 46 47 45 41 37 33 29 22 18 13 7 360 355 353 348 343 333 322 310 300 293 290 286 284 281 279 279 280 279 278 277 277 277 278 278 277 275 274 271 267 265 265 264 264 264 264 264 263 260 255 250 248 246 247 246 247 249
14 13 73 112 191 199 178 134 149 117 42 31 193 129 92 79 83 89 100 94 77 69 37 32 89 110 95 95 57 46 58 57 58 49 28 29 38 47 47 47 46 45 44 40 38 37 35 31 28 24 19 13 7 1 355 352 346 339 329 318 307 298 291 288 285 281 278 278 279 278 277 277 278 278 277 276 275 274 272 268 265 266 266 264 263 261 262 264 263 259 255 252 249 248 246 245 248
8 358 89 176 287 218 165 114 132 98 89 232 187 130 105 88 85 98 107 88 74 82 50 43 95 103 92 100 54 47 61 61 59 46 31 36 39 47 47 47 45 42 42 39 38 36 35 33 30 28 25 23 19 14 7 360 355 349 342 335 326 316 305 297 293 288 284 279 277 276 277 277 278 280 278 276 275 274 272 270 267 267 268 269 266 260 260 262 263 262 259 255 251 250 248 246 248
1 341 88 118 345 334 181 100 116 107 140 238 75 113 100 93 102 94 101 91 66 84 81 59 77 100 84 94 65 55 64 57 51 39 28 34 38 46 46 46 43 40 38 35 35 32 31 30 27 26 24 23 21 19 15 10 4 358 351 345 336 328 319 312 305 300 295 290 283 278 277 276 277 277 277 276 275 273 271 270 269 269 269 270 269 263 259 259 261 262 260 257 254 252 249 247 247
360 345 71 56 321 319 14 74 98 98 126 156 92 113 98 81 105 81 90 97 73 74 80 70 78 100 92 92 88 71 68 56 45 28 27 38 41 45 43 42 40 38 35 31 30 27 25 23 21 20 19 18 16 14 13 11 9 5 360 354 346 338 328 321 315 310 305 300 295 289 283 278 277 277 277 276 274 272 271 269 267 267 267 268 268 265 262 259 260 261 260 258 256 252 248 247 246
359 14 59 4 291 343 313 52 99 116 112 58 80 102 109 107 97 68 84 97 86 83 85 82 88 96 92 92 92 80 69 45 28 18 30 40 39 39 37 35 33 33 31 28 25 22 19 17 15 13 11 11 8 6 5 4 4 2 0 358 355 349 341 330 320 314 309 305 303 301 296 289 284 281 279 278 276 273 271 269 267 266 265 266 266 265 264 263 261 260 259 258 256 253 249 248 246
5 73 63 321 239 81 251 65 74 117 104 49 54 85 112 121 67 85 95 96 94 90 89 93 93 91 92 94 89 75 55 33 33 35 40 41 38 37 35 32 30 28 26 24 21 18 16 13 11 8 5 3 1 359 358 357 355 354 353 352 352 351 348 342 333 324 315 308 305 304 303 299 294 289 285 283 282 278 272 269 268 266 264 264 264 264 265 264 263 260 259 257 255 252 250 247 245
29 95 50 265 225 208 105 74 60 81 94 63 46 84 101 82 26 97 108 106 102 96 92 95 93 91 92 90 80 64 49 47 49 47 45 42 39 38 35 33 30 27 23 20 18 15 13 10 7 4 1 358 355 353 352 350 348 346 345 343 343 343 343 343 341 336 328 319 309 303 302 300 298 297 294 290 287 285 278 270 267 265 264 262 262 265 265 264 263 261 259 257 255 251 249 246 244
47 72 27 244 241 275 49 76 87 80 86 62 26 80 85 39 9 107 125 106 95 107 116 103 94 93 90 83 75 64 58 57 53 48 45 41 39 38 35 33 30 27 22 17 15 12 10 7 3 1 357 354 351 349 346 344 342 340 338 336 335 334 334 334 335 335 334 331 321 311 303 299 298 298 298 296 292 289 283 275 269 265 264 262 261 262 263 263 262 260 259 256 254 250 248 246 243
345 109 202 246 302 326 359 55 75 64 71 53 29 72 46 14 36 128 135 104 61 99 121 117 108 103 96 88 79 70 64 58 53 48 45 40 36 34 32 30 27 25 20 15 12 9 6 4 0 358 355 352 349 347 345 343 340 337 335 333 331 329 329 327 326 325 326 328 328 323 313 304 298 296 296 296 294 292 288 280 273 267 263 263 262 260 259 261 261 259 258 255 252 251 249 246 243
328 220 206 278 11 341 335 25 38 37 54 43 45 55 346 14 69 106 123 102 98 114 116 118 114 109 102 94 84 73 63 55 49 45 42 37 31 28 25 23 21 19 16 13 10 7 4 2 360 356 354 352 350 348 346 344 342 339 337 335 332 330 328 326 324 322 319 319 321 323 320 314 303 295 293 292 291 292 291 283 276 271 266 263 262 261 260 259 259 257 255 254 252 250 249 247 244
323 271 272 37 20 4 338 7 21 24 42 37 30 359 341 87 80 89 101 103 120 122 120 117 112 110 105 97 85 69 60 52 46 41 39 35 29 24 21 18 17 15 14 12 9 6 3 1 360 356 353 352 350 349 348 346 344 343 340 338 335 333 331 329 326 322 318 316 314 315 316 315 310 300 292 289 286 286 286 281 276 273 269 265 262 260 261 261 259 254 251 252 252 249 248 247 246
158 258 271 152 333 346 336 348 13 24 48 25 3 346 328 120 101 93 102 112 123 123 123 119 114 114 108 97 81 69 61 54 48 42 36 33 28 23 19 16 15 12 11 10 7 5 1 359 359 356 352 351 350 350 348 347 347 346 344 342 339 337 335 332 328 325 322 317 312 310 311 310 309 306 298 291 287 284 282 279 276 273 268 265 262 260 260 260 259 253 248 250 251 249 247 247 246
156 238 274 201 297 298 311 336 9 27 69 5 8 15 339 133 118 104 113 124 127 126 124 121 119 114 104 94 81 70 63 55 48 42 34 29 26 22 18 15 13 10 9 7 5 3 360 357 357 355 352 350 350 349 348 347 347 346 345 344 342 340 338 334 330 329 326 321 314 308 306 307 306 305 304 297 290 286 283 281 278 276 271 266 263 260 260 258 256 253 248 247 249 248 247 246 246
165 134 321 331 306 265 267 313 35 127 106 9 24 29 26 120 113 102 131 134 132 132 124 123 119 109 99 91 82 69 60 52 46 41 34 27 23 20 17 15 12 10 7 5 3 1 358 356 355 353 352 351 349 348 347 346 346 345 344 342 340 339 337 335 332 330 328 324 319 313 305 303 303 302 302 299 292 287 284 281 280 279 275 269 264 258 258 257 253 253 249 246 247 247 246 246 246
189 42 330 301 284 253 223 228 204 194 238 3 24 2 279 149 121 110 150 143 143 138 123 125 118 107 102 94 83 70 60 51 46 40 33 26 22 19 16 14 11 9 6 3 2 359 356 355 353 352 351 350 348 347 346 345 345 344 342 340 337 335 334 332 330 328 327 324 322 320 313 304 301 299 299 298 295 291 285 281 280 282 279 271 266 260 255 254 253 252 249 247 247 246 246 246 246
282 6 329 301 272 233 207 200 203 211 245 344 355 346 267 223 154 152 159 152 154 143 126 127 119 113 109 99 86 73 67 53 42 38 33 27 22 19 17 14 10 7 5 3 1 357 355 354 353 352 350 349 347 346 345 344 342 340 339 337 335 332 329 327 326 325 324 323 321 320 319 315 306 298 296 296 297 295 290 284 279 280 282 276 271 266 259 255 253 250 246 247 247 245 246 246 245
317 48 334 322 9 201 220 202 197 203 219 314 342 358 284 261 144 155 160 156 154 141 129 128 121 119 114 104 91 74 72 56 42 39 35 29 24 19 16 14 9 5 3 2 360 356 355 355 354 352 350 348 347 345 343 341 338 336 335 333 332 329 327 324 322 321 320 320 319 317 317 318 315 305 297 295 296 296 294 290 283 277 280 281 277 271 266 260 252 247 244 243 243 243 243 243 244
302 144 131 60 32 324 235 213 204 188 217 276 337 338 267 256 149 158 161 158 149 135 132 131 124 122 117 109 97 76 71 59 45 40 35 29 23 18 15 12 9 5 3 2 359 356 355 354 353 352 350 349 347 345 341 338 336 334 332 330 329 327 326 323 320 318 317 316 315 313 313 315 315 311 303 297 295 296 296 294 289 281 276 279 281 276 270 264 254 246 242 239 239 241 240 240 240
63 74 61 101 84 280 243 219 194 174 236 238 180 273 257 178 156 164 164 161 149 136 135 133 128 126 120 112 101 79 64 57 47 38 33 27 21 16 12 9 7 4 2 360 356 354 352 353 353 350 349 348 346 344 339 336 334 332 330 328 327 325 323 322 319 317 314 312 310 308 309 310 311 311 307 302 298 296 297 296 293 289 279 275 281 280 272 267 260 250 243 239 238 238 238 239 238
43 82 319 341 117 270 272 253 182 171 236 220 164 263 259 166 169 169 162 160 147 138 139 135 131 129 123 117 107 80 58 56 46 35 30 25 19 14 10 7 5 2 0 358 354 352 351 352 351 348 347 346 343 341 337 335 333 331 329 327 325 323 321 319 317 315 312 310 307 304 304 305 308 309 306 305 304 300 298 298 296 293 285 275 278 282 274 269 262 250 243 239 236 236 237 238 237
360 103 244 284 316 304 291 302 211 175 206 226 195 209 253 222 180 171 162 159 147 140 141 138 135 132 126 118 108 81 58 56 46 33 25 18 15 12 9 5 3 1 359 356 354 352 351 349 348 346 345 342 339 337 335 333 331 329 327 325 323 320 318 316 314 313 311 308 306 303 301 301 303 306 304 304 305 304 301 300 298 296 290 276 274 284 277 267 260 250 244 238 234 235 236 236 234
323 16 301 273 290 292 263 305 279 196 195 239 225 216 235 217 176 170 165 160 150 143 144 142 139 134 127 116 107 87 61 52 44 29 12 7 8 9 8 4 2 0 358 355 354 352 349 347 345 343 341 339 336 335 333 331 329 327 325 323 321 319 317 315 313 311 309 307 305 302 300 299 300 300 301 303 303 304 302 301 300 298 295 279 270 282 280 266 263 259 248 240 236 234 232 233 231
260 278 283 293 295 271 250 272 264 189 214 242 246 261 248 214 175 167 167 164 154 147 147 145 142 137 127 117 111 94 61 48 38 17 1 357 2 6 6 3 1 358 356 354 352 350 347 345 342 340 338 335 333 332 331 329 328 326 324 323 320 318 317 315 312 309 307 305 302 301 300 300 299 297 298 300 301 300 299 302 302 300 299 287 270 275 284 270 263 259 246 239 237 231 229 231 229
219 245 229 261 278 272 254 249 240 181 208 249 238 246 233 196 201 180 170 167 155 147 147 146 143 138 128 118 113 93 61 38 25 7 353 351 359 4 4 2 359 356 355 352 350 348 344 342 339 337 335 332 331 330 331 330 328 327 324 322 319 317 316 314 311 308 306 304 300 300 300 300 298 295 294 296 297 295 296 300 302 302 301 295 275 268 280 279 264 255 246 238 233 226 224 226 224
218 250 243 253 258 269 266 254 263 195 190 250 227 233 248 209 214 195 172 164 155 150 150 148 144 141 132 123 118 92 66 26 14 2 345 347 357 1 1 360 358 356 354 351 348 345 342 340 338 336 333 331 330 330 330 328 327 325 323 320 318 316 315 313 310 307 306 303 300 298 298 298 296 294 292 293 293 292 294 297 299 303 302 298 286 267 269 281 272 255 241 232 226 218 216 216 213
238 239 251 265 248 259 266 232 232 205 180 264 245 249 267 248 233 194 173 165 165 164 157 152 147 144 138 129 127 107 75 20 2 353 344 349 355 358 358 358 357 355 352 348 345 341 339 339 337 335 333 332 332 330 328 326 324 324 322 319 317 315 314 312 309 307 307 304 300 297 296 296 294 292 291 290 290 289 292 295 296 301 302 300 296 277 265 271 276 257 230 222 221 215 211 209 205
237 244 263 272 255 268 282 245 209 354 273 270 276 266 257 255 241 190 180 178 176 173 162 155 151 146 146 141 133 125 99 5 350 346 347 350 351 353 355 356 356 351 347 344 342 340 338 337 335 334 334 334 332 330 327 324 323 323 320 316 314 311 307 305 303 302 303 302 299 297 295 294 292 289 288 287 287 287 289 291 294 298 301 302 301 289 273 266 272 269 232 217 216 212 206 204 203
235 239 254 260 259 269 278 287 319 319 276 252 275 272 252 239 212 183 190 176 162 165 159 155 156 152 154 156 144 135 141 345 346 344 346 346 347 351 352 353 353 347 344 343 341 340 338 336 335 334 334 334 332 328 325 323 323 322 318 314 312 309 306 305 304 303 302 300 298 298 296 294 292 288 287 285 285 286 286 287 291 294 296 301 304 294 283 270 268 278 254 222 213 208 200 198 202
251 223 222 245 253 236 240 282 327 324 309 280 282 288 264 194 181 189 185 155 148 155 152 152 162 161 159 161 154 140 164 331 339 336 341 344 346 348 349 349 349 347 345 343 341 340 338 336 336 334 332 331 330 328 326 326 325 323 322 321 319 318 315 312 313 311 308 303 297 296 297 298 294 288 286 285 284 285 285 286 288 291 292 296 304 298 285 276 267 276 273 230 207 203 199 195 196
284 240 218 220 207 222 261 329 360 341 310 284 248 291 287 198 182 190 168 156 163 159 155 160 168 167 164 165 162 153 176 285 322 332 340 344 345 345 345 347 347 347 345 341 339 338 337 337 336 333 331 331 331 331 330 329 327 326 325 324 324 323 319 315 314 312 310 308 302 295 291 294 296 292 287 285 285 283 283 286 285 287 292 292 300 301 285 277 268 270 275 236 203 201 199 192 192
282 248 185 163 148 200 276 322 19 273 266 276 140 222 281 254 185 195 181 180 185 172 169 176 177 172 167 169 172 171 192 286 322 336 341 341 341 342 344 346 346 345 343 339 337 337 338 337 334 332 331 332 333 334 334 331 329 329 327 325 324 322 317 313 311 309 308 310 311 303 292 289 293 294 290 285 283 284 282 284 285 284 289 290 296 301 289 277 270 269 273 250 216 210 205 193 191
245 233 137 130 160 246 248 213 224 240 272 297 203 203 274 278 229 198 179 180 189 189 191 187 181 175 166 169 177 186 252 302 338 340 338 335 338 342 345 345 344 342 340 337 337 338 338 336 332 331 333 334 334 334 334 333 331 329 327 325 323 319 314 310 308 307 307 309 310 307 297 289 288 292 294 288 283 285 283 283 284 282 284 289 294 300 294 279 274 271 271 265 239 215 206 201 195
244 206 157 179 209 230 232 215 239 268 355 285 223 175 263 273 246 173 167 185 204 198 194 190 180 173 166 168 178 198 216 277 341 335 330 333 339 344 345 343 341 340 338 336 337 338 337 335 333 333 335 335 334 335 335 334 332 329 326 324 320 316 312 309 308 307 306 308 308 307 301 291 287 288 292 293 288 283 283 283 281 277 281 288 292 297 297 281 275 279 271 272 266 221 201 202 199
238 190 202 246 235 237 226 219 247 23 340 261 219 167 222 265 234 142 164 209 216 199 188 186 177 171 167 170 181 196 190 249 336 327 328 335 342 345 344 342 340 338 337 336 337 339 337 336 335 335 336 335 334 335 335 334 333 331 328 324 320 316 312 311 311 309 306 307 308 309 306 298 292 289 288 295 296 288 283 281 278 277 281 288 290 293 300 288 274 281 277 272 275 249 208 201 202
181 56 333 327 299 272 160 196 70 63 263 261 223 187 201 268 245 164 185 223 197 177 174 182 178 170 168 173 184 189 194 256 324 324 329 338 344 346 343 340 338 336 335 336 337 338 337 337 337 336 336 335 334 334 335 335 334 332 329 326 321 317 315 313 312 312 311 308 306 307 307 302 297 294 291 290 298 299 290 281 278 279 281 284 287 290 298 297 281 276 278 272 269 266 238 209 203
69 61 34 351 314 351 33 3 52 115 257 265 241 207 196 238 247 196 226 243 169 168 173 176 175 170 169 175 187 188 204 271 316 322 335 345 346 345 340 337 335 333 333 335 336 337 337 338 338 336 337 337 335 335 336 335 334 332 330 328 325 320 316 314 312 312 312 308 306 306 308 306 301 297 292 286 289 300 300 290 281 277 277 280 284 290 294 296 292 278 273 274 266 266 264 231 208
80 81 62 16 329 353 355 311 168 220 249 241 201 159 213 236 250 215 220 222 166 166 166 163 163 166 169 175 185 188 208 271 313 334 347 349 345 340 336 334 333 331 333 334 335 336 337 338 338 336 337 337 337 337 336 336 334 332 331 330 327 323 318 315 312 312 311 308 306 306 307 308 304 298 291 285 285 292 301 302 288 274 273 280 283 288 292 293 293 285 273 273 269 262 268 262 224
138 133 116 124 7 333 289 262 265 273 270 244 195 3 274 260 277 230 200 171 150 148 151 156 157 161 168 174 179 184 204 279 333 350 353 347 339 334 333 333 332 330 332 333 334 336 336 337 337 336 336 337 337 338 337 335 334 332 332 331 328 324 320 317 313 309 308 307 305 304 306 306 305 301 293 287 287 288 294 302 295 279 273 279 283 284 289 292 291 289 280 272 272 266 265 270 247
187 164 134 152 157 214 256 231 248 280 289 263 227 273 237 208 294 265 160 137 138 141 145 151 154 161 168 171 176 184 215 340 353 354 350 340 333 332 332 332 331 329 331 332 333 335 336 337 337 335 336 337 336 337 336 334 334 332 331 331 329 325 321 317 313 309 307 306 305 304 304 303 303 303 298 289 286 288 290 297 299 287 274 272 280 283 285 291 290 287 286 274 269 271 264 267 262
244 132 113 184 178 180 233 207 199 284 304 273 204 222 222 190 321 5 127 133 138 144 150 151 157 165 167 171 175 174 350 355 356 350 342 333 329 331 333 332 330 329 330 332 333 335 336 336 336 335 335 335 335 334 334 332 332 331 331 331 330 327 323 319 315 311 308 306 306 303 302 301 301 302 300 292 285 285 289 294 298 289 276 271 278 283 282 286 289 284 286 279 267 268 265 264 269
205 138 176 227 170 141 215 261 5 44 297 269 199 244 275 351 303 178 140 148 152 155 161 160 166 169 167 172 170 136 1 354 349 343 334 328 329 332 333 332 329 329 330 332 334 335 335 335 335 335 334 334 334 334 333 331 330 330 331 331 331 329 326 322 318 313 310 306 303 302 300 301 301 301 300 295 288 284 286 291 295 290 280 273 273 280 281 281 286 283 282 280 268 266 265 258 265
142 182 217 206 120 100 130 274 343 49 268 268 196 242 258 175 226 213 175 179 180 183 177 170 171 169 169 170 160 88 354 346 338 335 328 327 331 333 333 331 327 327 330 332 335 335 335 335 334 333 333 332 333 333 332 330 328 329 330 330 330 330 328 324 320 316 312 307 303 301 301 301 302 301 300 299 293 285 283 287 292 290 284 275 269 275 281 279 282 283 280 279 272 265 266 257 255
133 202 240 122 167 236 130 155 256 224 269 274 229 245 239 196 191 194 195 196 190 192 184 176 181 174 171 169 159 209 332 332 331 331 327 328 332 333 333 330 326 328 331 334 335 334 334 335 334 333 332 331 330 330 330 328 327 328 328 329 329 329 328 326 323 318 315 311 306 303 302 302 301 300 300 301 296 286 282 285 289 292 288 278 269 269 277 280 279 282 280 279 278 266 263 258 250
68 32 334 81 193 218 161 163 189 198 262 273 291 297 252 200 187 185 196 198 186 185 183 182 190 180 172 170 171 200 310 328 332 330 327 329 332 333 331 328 327 330 333 335 334 334 335 335 334 333 332 331 329 329 329 329 329 329 329 329 329 328 327 327 324 320 316 313 310 305 303 303 302 300 297 296 293 286 282 285 287 290 291 284 274 267 272 279 278 280 281 279 283 273 261 260 250
139 168 201 198 187 170 230 229 158 185 244 256 292 286 257 194 185 186 190 192 182 179 181 186 188 177 172 173 177 204 315 329 331 328 328 330 332 332 328 327 329 332 334 335 334 334 335 335 334 333 332 331 330 330 331 331 331 331 330 330 330 329 327 327 325 321 316 314 313 308 303 303 301 298 294 291 290 286 283 284 283 282 285 286 281 271 270 277 276 278 282 280 284 280 263 260 252
179 185 188 196 192 153 247 254 195 189 233 201 237 271 262 198 179 182 174 180 181 175 174 182 179 172 172 177 178 236 316 327 331 329 330 332 332 331 327 328 331 333 334 336 335 334 334 335 335 333 331 330 329 329 331 332 331 332 332 331 330 329 328 327 325 322 318 315 314 310 305 302 299 296 295 292 289 287 283 281 279 276 279 284 285 277 270 274 276 276 281 280 282 282 267 257 252